{"data":{"norad_id":64061,"epoch":"2026-05-25T04:03:36.325152Z","epoch_age_seconds":70644,"freshness":"FRESH","line1":"1 64061U 25105D   26145.16917043 -.00000063  00000+0  44848-4 0  9990","line2":"2 64061  44.9837 124.4451 0011510 277.2647  82.6878 13.99130183 51988","mean_motion":13.99130183,"eccentricity":0.001151,"inclination_deg":44.9837,"raan_deg":124.4451,"arg_perigee_deg":277.2647,"mean_anomaly_deg":82.6878,"bstar":4.4848e-5,"rev_number":5198,"period_min":102.92108750827,"perigee_km":888.43526239207,"apogee_km":905.18218745084,"semimajor_km":7274.9457249215,"source":"CELESTRAK","updated_at":"2026-05-25T13:38:04.199000Z"}}